Главная страница
METAR-TAF:

METAR-TAF

Аэропорты :

Morristown, Нью-Джерси, США

широта: 40-48N, долгота: 074-25W, высота над уровнем моря: 57 м

Текущие метеонаблюдения

Эта сводка был подготовлена 13 минут назад, в 09:15 UTC
Штиль
Температура -1°C
Влажность 100%
Давление 1023 hPa
Видимость: 16.1 км
ясное небо

METAR: KMMU 220915Z AUTO 00000KT 10SM CLR M01/M01 A3021 RMK AO2

Время: 05:28 (09:28 UTC)


TAF: отсутствует

Метеонаблюдения и прогнозы для более 4000 аэропортов (сводки METAR и TAF).

Имеющиеся станции представлены на карте желтыми и красными точками.

Чтобы увидеть название станции, наведите на нее мышь.

Затем щелкните, чтобы увидеть метеонаблюдения и метеопрогнозы.

Управление картой: чтобы увеличить масштаб, щелкните зеленые кнопки с черным крестиком; чтобы уменьшить масштаб, щелкните зеленую кнопку с тире; для просмотра соседних карт щелкайте зеленые стрелки.


METAR-TAF: